Simultaneous Nadir Overpasses (SNOs) Predictions

Prediction of SNOs between GOES-17 and LANDSAT-8 Satellite Orbit:

Table of predicted SNOs for the next 14.0 days since TLE Epoch: 4/16/2022
Index Date Time (GOES-17) GOES-17 Lat,Lon LANDSAT-8 Lat,Lon Distance(km) Time Diff (sec)
1 04/16/2022 19:04:01 0.05,-137.18 -0.86,-132.80 497.81 80
2 04/17/2022 07:25:24 -0.05,-137.18 -0.25,-137.99 93.13 80
3 04/19/2022 07:10:33 -0.05,-137.16 0.42,-135.04 241.90 80
4 04/19/2022 19:31:48 0.05,-137.16 0.70,-140.19 344.51 80
5 04/21/2022 19:19:36 0.04,-137.13 0.07,-137.22 10.85 80
6 04/23/2022 19:10:04 0.03,-137.10 -0.57,-134.26 322.34 80
7 04/24/2022 07:31:28 -0.03,-137.08 -0.53,-139.45 269.07 80
8 04/26/2022 07:16:36 -0.03,-137.05 0.12,-136.49 64.20 80
9 04/28/2022 07:04:23 -0.03,-137.01 0.72,-133.52 397.33 80
10 04/28/2022 19:25:38 0.03,-137.01 0.39,-138.67 189.56 80
